カタログに戻る

THOR ABLESTAR DEB

運用中LEO
NORAD 323·DEBRIS·🇺🇸 United States

打ち上げ Jun 29, 1961 から Cape Canaveral Space Force Station

Loading…

次のパス (今後24時間)

TLE

最新Source: Space-Track

元期: Sep 14, 2026, 07:34 UTC

1 00323U 61015CZ  26257.31571095  .00000594  00000-0  33018-3 0  9990
2 00323  66.8373 232.7658 0073310  16.3965 343.9473 14.16521822341092

AllMySatでTHOR ABLESTAR DEBをリアルタイム追跡

Download on the App Store